This is the latest recevied weather packets stored in our database for station/object KI8L. If no packets are shown the sender has not sent any weather packets the latest 10 day(s).
| Time | Temp. | Humidity | Pressure | Rain* | Wind** | Luminosity | Snow |
|---|---|---|---|---|---|---|---|
| 1778118069 | 7.78° C | 83% | 1016.2 hPa | 0 mm | - | 0 W/m² | - |
| 1778117766 | 8.33° C | 85% | 1016.2 hPa | 0 mm | - | 0 W/m² | - |
| 1778117463 | 8.33° C | 82% | 1016 hPa | 0 mm | - | 0 W/m² | - |
| 1778117160 | 8.33° C | 80% | 1016.1 hPa | 0 mm | - | 0 W/m² | - |
| 1778116856 | 8.33° C | 83% | 1015.7 hPa | 0 mm | - | 0 W/m² | - |
| 1778116554 | 8.33° C | 81% | 1015.8 hPa | 0 mm | - | 0 W/m² | - |
| 1778116250 | 8.33° C | 80% | 1015.7 hPa | 0 mm | - | 0 W/m² | - |
| 1778115944 | 8.33° C | 80% | 1015.6 hPa | 0 mm | - | 0 W/m² | - |
| 1778115641 | 8.33° C | 78% | 1015.6 hPa | 0 mm | - | 0 W/m² | - |
| 1778115339 | 8.89° C | 80% | 1015.4 hPa | 0 mm | - | 0 W/m² | - |
| 1778115034 | 8.89° C | 79% | 1015.5 hPa | 0 mm | - | 0 W/m² | - |
| 1778114732 | 8.89° C | 78% | 1015.6 hPa | 0 mm | - | 0 W/m² | - |
| 1778114429 | 8.89° C | 77% | 1015.6 hPa | 0 mm | - | 0 W/m² | - |
| 1778114125 | 8.89° C | 79% | 1015.7 hPa | 0 mm | - | 1 W/m² | - |
| 1778113820 | 9.44° C | 80% | 1015.4 hPa | 0 mm | - | 2 W/m² | - |
| 1778113517 | 9.44° C | 78% | 1015.4 hPa | 0 mm | - | 3 W/m² | - |
| 1778113213 | 9.44° C | 77% | 1015.5 hPa | 0 mm | - | 4 W/m² | - |
| 1778112909 | 9.44° C | 75% | 1015.5 hPa | 0 mm | - | 5 W/m² | - |
| 1778112607 | 10° C | 74% | 1015.4 hPa | 0 mm | - | 7 W/m² | - |
| 1778112303 | 10° C | 73% | 1015.2 hPa | 0 mm | - | 10 W/m² | - |
| 1778111998 | 10° C | 74% | 1015.2 hPa | 0 mm | - | 14 W/m² | - |
| 1778111696 | 10° C | 73% | 1015.2 hPa | 0 mm | - | 22 W/m² | - |
| 1778111392 | 10° C | 71% | 1015.4 hPa | 0 mm | - | 30 W/m² | - |
| 1778111089 | 10° C | 72% | 1015.4 hPa | 0 mm | - | 27 W/m² | - |
| 1778110787 | 10° C | 74% | 1015.4 hPa | 0 mm | - | 22 W/m² | - |
* Rain latest hour (hover to see other rain measurements)
** Current wind speed in m/s (hover to see current wind gust speed)